Flag for United Kingdom Weather past 2 weeks in Chester, England, United Kingdom

Now
54 °F

Scattered clouds.


Feels Like: 50 °F
Forecast: 35 / 59 °F
Wind: 10 mph from Northwest

Location: Hawarden Airport

Current Time: Apr 19, 2015 at 6:55:39 PM

Latest Report: Apr 19, 2015 at 3:50 PM


Visibility: N/A

Pressure: 30.27 "Hg

Humidity: 67%

Dew point: 43 °F

Location of ChesterLocation

Historic Weather in Chester — Graph

°F

Chester temperature yesterday

Maximum temperature yesterday: 61 °F (at 3:20 PM)
Minimum temperature yesterday: 43 °F (at 8:20 AM)
Average temperature yesterday: 54 °F

Past Weeks' High & Low Weather Summary

 TemperatureHumidityPressure
High68 °F (Apr 10, 4:50 PM)100% (Apr 6, 7:50 AM)30.66 "Hg (Apr 6, 7:50 AM)
Low32 °F (Apr 13, 6:20 AM)42% (Apr 18, 4:20 PM)29.80 "Hg (Apr 10, 7:20 PM)
Average53 °F71%30.26 "Hg
* Reported Apr 4 3:20 PM — Apr 19 3:50 PM, Chester, Weather by CustomWeather, © 2015

Note: Actual official high and low records may vary slightly from our data, if they occured in-between our weather recording intervals... More about our weather records

Advertising

Chester weather history for previous 24 hours

 ConditionsComfort  
Time TempWeatherWind HumidityBarometerVisibility
3:50 PM
Sun, Apr 19
54 °FScattered clouds.10 mph67%30.27 "HgN/A
3:20 PM52 °FScattered clouds.9 mph72%30.27 "HgN/A
2:50 PM52 °FScattered clouds.10 mph72%30.30 "HgN/A
2:20 PM50 °FBroken clouds.9 mph71%30.30 "HgN/A
1:50 PM50 °FBroken clouds.9 mph67%30.30 "HgN/A
1:20 PM50 °FPartly sunny.9 mph67%30.33 "HgN/A
12:50 PM50 °FPartly sunny.9 mph67%30.33 "HgN/A
12:20 PM48 °FPartly sunny.10 mph71%30.33 "HgN/A
11:50 AM48 °FPartly sunny.9 mph76%30.33 "HgN/A
11:20 AM48 °FPartly sunny.8 mph71%30.33 "HgN/A
10:50 AM46 °FPartly sunny.7 mph71%30.36 "HgN/A
10:20 AM46 °FPartly sunny.6 mph66%30.36 "HgN/A
9:50 AM45 °FPartly sunny.6 mph76%30.36 "HgN/A
9:20 AM45 °FPartly sunny.5 mph76%30.36 "HgN/A
8:50 AM43 °FPartly sunny.3 mph81%30.36 "HgN/A
8:20 AM41 °FScattered clouds.2 mph87%30.39 "HgN/A
Weather by CustomWeather, © 2015

See weather overviewHow to use our weather pages